sat.trackr.live / text

‹ back to catalog

STARLINK-34721

NORAD 65039 · 2025-161AA

PAYLOAD ACTIVE UNKNOWN

§ Identity

Operator
Country
US
Launch date
2025-07-30
Launch site
AFWTR
Launch vehicle
Mass (kg)
RCS (m²)

Purposes: comms

External: N2YO · Heavens-Above · Gunter

§ Orbital elements

Epoch: 2026-09-20T22:54:24.262272Z

Period
93.85 min
Inclination
53.1589°
Eccentricity
0.0001471
Mean motion
15.34397129 rev/d
Perigee alt
461.7 km
Apogee alt
463.7 km
Semi-major
6,840.8 km
B*
3.7169e-4
RAAN
105.2320°
Arg perigee
81.8219°
Mean anomaly
278.2950°
Rev number
6,415

§ Raw data

STARLINK-347211 65039U 25161AA  26263.95444748  .00012201  00000+0  37169-3 0  99962 65039  53.1589 105.2320 0001471  81.8219 278.2950 15.34397129 64154

JSON: /api/v1/satellites/65039 · /tle

For live sub-satellite position, see the globe view (requires WebGL).

§ Visibility from observer

Set your observer location to see the next 7 days of passes ≥ 10°. The values pass through the URL so the page stays shareable.

No JS? Fill the form by hand. The geolocation button needs JavaScript.